Weather History for EHDL - July, 2013

Change the Weather History Date:

Monday, July 1, 2013

  Actual Average Record
Temperature  
Mean Temperature 60 °F -  
Max Temperature 68 °F 70 °F 93 °F (2015)
Min Temperature 50 °F 57 °F 39 °F (2014)
Degree Days  
Heating Degree Days 6    
Growing Degree Days 10 (Base 50)    
Moisture  
Dew Point 54 °F    
Average Humidity 79    
Maximum Humidity 94    
Minimum Humidity 56    
Precipitation  
Precipitation 0.00 in - - ()
Sea Level Pressure  
Sea Level Pressure 30.01 in    
Wind  
Wind Speed 7 mph ()    
Max Wind Speed 14 mph    
Max Gust Speed -    
Visibility 6.1 miles    
Events      
Averages and records for this station are not official NWS values.
T = Trace of Precipitation, MM = Missing Value Source: Averaged Metar Reports

Daily Weather History Graph

Daily Weather History Graph

Search for Another Location

Airport or City:

Trip Planner

Search our weather history database for the weather conditions in past years. The results will help you decide how hot, cold, wet, or windy it might be!

Date:

Astronomy

Jul. 01, 2013 Rise Set
Actual Time 5:20 AM CEST 9:59 PM CEST
Civil Twilight 4:32 AM CEST 10:48 PM CEST
Nautical Twilight 3:15 AM CEST 12:04 AM CEST
Astronomical Twilight 2:12 AM CEST 1:08 AM CEST
Moon 1:15 AM CEST (7/1) 3:30 PM CEST (7/1)
Length of Visible Light 18h 15m
Length of Day
16h 39m
Last Quarter, 38% of the Moon is Illuminated
Jul 1
Last Quarter
Jul 8
New
Jul 16
First Quarter
Jul 22
Full
Jul 29
Last Quarter

Hourly Weather History & Observations

Time (CEST) Temp. Dew Point Humidity Pressure Visibility Wind Dir Wind Speed Gust Speed Precip Events Conditions
12:25 AM 60.8 °F 57.2 °F 88% 30.04 in 6.2 mi South 3.5 mph - N/A   Unknown
12:55 AM 60.8 °F 57.2 °F 88% 30.04 in 6.2 mi SSW 6.9 mph - N/A   Unknown
1:25 AM 59.0 °F 57.2 °F 94% 30.04 in 6.2 mi South 5.8 mph - N/A   Unknown
1:55 AM 59.0 °F 57.2 °F 94% 30.04 in 6.2 mi SSW 5.8 mph - N/A   Unknown
2:25 AM 59.0 °F 57.2 °F 94% 30.04 in 6.2 mi SSW 9.2 mph - N/A   Unknown
2:55 AM 57.2 °F 55.4 °F 94% 30.01 in 6.2 mi SW 6.9 mph - N/A   Unknown
3:25 AM 59.0 °F 55.4 °F 88% 30.01 in 6.2 mi WSW 8.1 mph - N/A   Unknown
3:55 AM 57.2 °F 55.4 °F 94% 30.01 in 6.2 mi SW 8.1 mph - N/A   Unknown
4:25 AM 57.2 °F 55.4 °F 94% 30.01 in 6.2 mi SW 10.4 mph - N/A   Overcast
4:55 AM 57.2 °F 55.4 °F 94% 30.01 in 6.2 mi WSW 8.1 mph - N/A   Mostly Cloudy
5:25 AM 57.2 °F 55.4 °F 94% 30.01 in 6.2 mi WSW 8.1 mph - N/A   Overcast
5:55 AM 57.2 °F 55.4 °F 94% 30.01 in 5.6 mi SW 6.9 mph - N/A   Overcast
6:25 AM 57.2 °F 55.4 °F 94% 30.01 in 5.6 mi WSW 6.9 mph - N/A   Overcast
6:55 AM 57.2 °F 55.4 °F 94% 30.01 in 5.0 mi WSW 6.9 mph - N/A   Overcast
7:25 AM 59.0 °F 55.4 °F 88% 30.01 in 5.6 mi SW 8.1 mph - N/A   Overcast
7:55 AM 59.0 °F 55.4 °F 88% 30.01 in 6.2 mi WSW 6.9 mph - N/A   Overcast
8:25 AM 59.0 °F 55.4 °F 88% 30.01 in 6.2 mi WSW 9.2 mph - N/A   Overcast
8:55 AM 59.0 °F 55.4 °F 88% 30.01 in 6.2 mi SW 10.4 mph - N/A   Overcast
9:25 AM 59.0 °F 53.6 °F 82% 30.01 in 6.2 mi WSW 9.2 mph - N/A   Overcast
9:55 AM 60.8 °F 55.4 °F 82% 30.01 in 6.2 mi WSW 9.2 mph - N/A   Overcast
10:25 AM 60.8 °F 55.4 °F 82% 30.01 in 6.2 mi SW 13.8 mph - N/A   Mostly Cloudy
10:55 AM 60.8 °F 55.4 °F 82% 30.01 in 6.2 mi SW 12.7 mph - N/A   Overcast
11:25 AM 60.8 °F 55.4 °F 82% 30.01 in 6.2 mi SW 11.5 mph - N/A   Overcast
11:55 AM 60.8 °F 55.4 °F 82% 30.04 in 6.2 mi SW 11.5 mph - N/A   Overcast
12:25 PM 64.4 °F 55.4 °F 73% 30.01 in 6.2 mi SW 10.4 mph - N/A   Mostly Cloudy
12:55 PM 62.6 °F 55.4 °F 77% 30.01 in 6.2 mi SW 11.5 mph - N/A   Mostly Cloudy
1:25 PM 64.4 °F 55.4 °F 73% 30.01 in 6.2 mi SW 10.4 mph - N/A   Overcast
1:55 PM 66.2 °F 55.4 °F 68% 30.01 in 6.2 mi SW 12.7 mph - N/A   Mostly Cloudy
2:25 PM 64.4 °F 53.6 °F 68% 30.01 in 6.2 mi WSW 12.7 mph - N/A   Overcast
2:55 PM 66.2 °F 55.4 °F 68% 30.01 in 6.2 mi WSW 11.5 mph - N/A   Mostly Cloudy
3:25 PM 64.4 °F 53.6 °F 68% 30.01 in 6.2 mi WSW 12.7 mph - N/A   Mostly Cloudy
3:55 PM 64.4 °F 53.6 °F 68% 30.01 in 6.2 mi WSW 10.4 mph - N/A   Overcast
4:25 PM 64.4 °F 51.8 °F 64% 30.01 in 6.2 mi WSW 10.4 mph - N/A   Mostly Cloudy
4:36 PM 66.2 °F 53.6 °F 64% 30.01 in 6.2 mi WSW 10.4 mph - N/A   Overcast
4:55 PM 66.2 °F 53.6 °F 64% 30.01 in 6.2 mi SW 12.7 mph - N/A   Overcast
5:25 PM 66.2 °F 53.6 °F 64% 30.01 in 6.2 mi WSW 10.4 mph - N/A   Mostly Cloudy
5:55 PM 66.2 °F 51.8 °F 60% 30.01 in 6.2 mi WSW 9.2 mph - N/A   Mostly Cloudy
6:25 PM 66.2 °F 50.0 °F 56% 30.01 in 6.2 mi WSW 10.4 mph - N/A   Mostly Cloudy
6:55 PM 68.0 °F 51.8 °F 56% 30.01 in 6.2 mi West 8.1 mph - N/A   Mostly Cloudy
7:25 PM 64.4 °F 51.8 °F 64% 29.98 in 6.2 mi West 9.2 mph - N/A   Scattered Clouds
7:55 PM 64.4 °F 51.8 °F 64% 29.98 in 6.2 mi West 8.1 mph - N/A   Mostly Cloudy
8:25 PM 64.4 °F 51.8 °F 64% 29.98 in 6.2 mi West 8.1 mph - N/A   Mostly Cloudy
8:55 PM 62.6 °F 50.0 °F 63% 29.98 in 6.2 mi West 5.8 mph - N/A   Mostly Cloudy
9:25 PM 62.6 °F 50.0 °F 63% 30.01 in 6.2 mi WNW 4.6 mph - N/A   Overcast
9:55 PM 59.0 °F 50.0 °F 72% 30.01 in 6.2 mi WNW 4.6 mph - N/A   Scattered Clouds
10:25 PM 57.2 °F 50.0 °F 77% 30.01 in 6.2 mi WNW 3.5 mph - N/A   Overcast
10:55 PM 53.6 °F 50.0 °F 88% 30.01 in 6.2 mi West 1.2 mph - N/A   Overcast
11:25 PM 51.8 °F 48.2 °F 88% 30.01 in 6.2 mi West 1.2 mph - N/A   Unknown
11:55 PM 50.0 °F 48.2 °F 94% 30.01 in 6.2 mi ESE 2.3 mph - N/A   Partly Cloudy